パンスターズ彗星

C/2016 E1 ( PanSTARRS )

English version
Home page
Updated on May 22, 2017

---------------------------------------------------------------------

・ プロフィール

発見日 2016年3月3日
発見光度 21.1等
発見者 Pan-STARRS 1 telescope (Haleakala)

・ 写真集

・ 軌道要素

Epoch 2017 June 16.0 TT = JDT 2457920.5
T 2017 June 1.40190 TT                                  MPCW
q   8.1767960            (2000.0)            P               Q
z  -0.0003771      Peri.   47.30765     -0.79986657     +0.08021364
 +/-0.0000020      Node   233.03578     -0.44395396     +0.58781943
e   1.0030835      Incl.  131.89139     +0.40387913     +0.80500564
From 52 observations 2016 Mar. 3-2017 Feb. 22, mean residual 0".3.

・ 光度変化

        m1 = 6.0 + 5 logΔ + 10.0 log r

---------------------------------------------------------------------

軌道要素はM.P.E.C. 2017-E59に掲載されたものです。
光度グラフはComet for Windowsで作成したものです。

---------------------------------------------------------------------

Copyright(C) Seiichi Yoshida (comet@aerith.net). All rights reserved.